TimeEDT,TemperatureF,Dew PointF,Humidity,Sea Level PressureIn,VisibilityMPH,Wind Direction,Wind SpeedMPH,Gust SpeedMPH,PrecipitationIn,Events,Conditions,WindDirDegrees,DateUTC
12:07 AM,53.6,53.6,100,29.91,6.0,Variable,4.6,-,0.04,Rain,Light Rain,0,2013-10-07 04:07:00
12:53 AM,54.0,53.1,97,29.87,5.0,Variable,3.5,-,0.09,Rain,Light Rain,0,2013-10-07 04:53:00
1:17 AM,53.6,53.6,100,29.91,1.8,Calm,Calm,-,0.03,Rain,Light Rain,0,2013-10-07 05:17:00
1:24 AM,53.6,53.6,100,29.91,1.2,Calm,Calm,-,0.04,Rain,Light Rain,0,2013-10-07 05:24:00
1:27 AM,53.6,51.8,94,29.91,2.0,Calm,Calm,-,0.04,Rain,Rain,0,2013-10-07 05:27:00
1:36 AM,53.6,51.8,94,29.92,1.5,Calm,Calm,-,0.08,Rain,Rain,0,2013-10-07 05:36:00
1:53 AM,53.1,52.0,96,29.89,2.0,Calm,Calm,-,0.12,Rain,Rain,0,2013-10-07 05:53:00
2:02 AM,53.6,51.8,94,29.93,3.0,Variable,3.5,-,0.02,Rain,Rain,0,2013-10-07 06:02:00
2:53 AM,53.1,52.0,96,29.89,2.5,Calm,Calm,-,0.10,Rain,Light Rain,0,2013-10-07 06:53:00
3:08 AM,53.6,51.8,94,29.91,1.5,Calm,Calm,-,0.03,Rain,Heavy Rain,0,2013-10-07 07:08:00
3:53 AM,53.1,52.0,96,29.86,1.0,Calm,Calm,-,0.06,Rain,Light Rain,0,2013-10-07 07:53:00
4:00 AM,53.6,51.8,94,29.90,0.8,Calm,Calm,-,0.01,Rain,Rain,0,2013-10-07 08:00:00
4:24 AM,53.6,51.8,94,29.90,1.2,Calm,Calm,-,0.12,Rain,Rain,0,2013-10-07 08:24:00
4:35 AM,53.6,51.8,94,29.90,2.0,Variable,3.5,-,0.13,Rain,Light Rain,0,2013-10-07 08:35:00
4:43 AM,53.6,51.8,94,29.90,6.0,Variable,3.5,-,0.13,Rain,Light Rain,0,2013-10-07 08:43:00
4:53 AM,53.1,52.0,96,29.87,2.5,Variable,3.5,-,0.14,Rain,Light Rain,0,2013-10-07 08:53:00
5:01 AM,53.6,51.8,94,29.90,5.0,Variable,3.5,-,0.01,Rain,Light Rain,0,2013-10-07 09:01:00
5:49 AM,53.6,51.8,94,29.91,10.0,WNW,5.8,-,0.01,,Overcast,290,2013-10-07 09:49:00
5:50 AM,53.1,51.1,93,29.88,10.0,WNW,5.8,-,0.01,,Overcast,290,2013-10-07 09:50:00
6:38 AM,51.8,50.0,94,29.92,10.0,West,3.5,-,N/A,,Overcast,260,2013-10-07 10:38:00
6:53 AM,52.0,50.0,93,29.90,10.0,West,4.6,-,N/A,,Mostly Cloudy,270,2013-10-07 10:53:00
7:10 AM,51.8,50.0,94,29.94,10.0,Variable,4.6,-,N/A,,Overcast,0,2013-10-07 11:10:00
7:25 AM,51.8,48.2,88,29.94,10.0,Variable,4.6,-,N/A,,Mostly Cloudy,0,2013-10-07 11:25:00
7:53 AM,51.1,50.0,96,29.92,9.0,Calm,Calm,-,N/A,,Mostly Cloudy,0,2013-10-07 11:53:00
8:28 AM,51.8,48.2,88,29.97,10.0,Variable,3.5,-,N/A,,Mostly Cloudy,0,2013-10-07 12:28:00
8:36 AM,51.8,48.2,88,29.97,10.0,Variable,3.5,-,N/A,,Mostly Cloudy,0,2013-10-07 12:36:00
8:53 AM,52.0,50.0,93,29.95,10.0,Variable,3.5,-,N/A,,Mostly Cloudy,0,2013-10-07 12:53:00
9:53 AM,52.0,48.9,89,29.99,10.0,Calm,Calm,-,N/A,,Overcast,0,2013-10-07 13:53:00
10:28 AM,55.4,48.2,77,30.01,10.0,WSW,5.8,-,N/A,,Partly Cloudy,250,2013-10-07 14:28:00
10:53 AM,55.9,48.0,75,30.00,10.0,Variable,3.5,-,N/A,,Clear,0,2013-10-07 14:53:00
11:53 AM,57.9,45.0,62,30.01,10.0,Variable,5.8,-,N/A,,Clear,0,2013-10-07 15:53:00
12:53 PM,57.9,44.1,60,30.01,10.0,WNW,6.9,-,N/A,,Partly Cloudy,300,2013-10-07 16:53:00
1:53 PM,63.0,44.1,50,30.00,10.0,Variable,5.8,-,N/A,,Mostly Cloudy,0,2013-10-07 17:53:00
2:53 PM,63.0,43.0,48,29.99,10.0,Variable,3.5,-,N/A,,Clear,0,2013-10-07 18:53:00
3:53 PM,64.9,43.0,45,30.00,10.0,Calm,Calm,-,N/A,,Clear,0,2013-10-07 19:53:00
4:53 PM,64.0,39.9,41,30.01,10.0,WNW,6.9,-,N/A,,Clear,300,2013-10-07 20:53:00
5:53 PM,63.0,41.0,45,30.02,10.0,NNW,4.6,-,N/A,,Clear,330,2013-10-07 21:53:00
6:53 PM,59.0,42.1,53,30.04,10.0,Variable,3.5,-,N/A,,Clear,0,2013-10-07 22:53:00
7:53 PM,57.0,42.1,57,30.08,10.0,Variable,4.6,-,N/A,,Clear,0,2013-10-07 23:53:00
8:53 PM,55.0,42.1,62,30.10,10.0,Variable,3.5,-,N/A,,Clear,0,2013-10-08 00:53:00
9:53 PM,55.0,42.1,62,30.11,10.0,Variable,4.6,-,N/A,,Clear,0,2013-10-08 01:53:00
10:53 PM,52.0,43.0,71,30.13,10.0,Calm,Calm,-,N/A,,Clear,0,2013-10-08 02:53:00
11:53 PM,51.1,43.0,74,30.14,10.0,Calm,Calm,-,N/A,,Clear,0,2013-10-08 03:53:00